Roosevelt Roads, PR

6:43 AM AST on December 11, 2017 (GMT -0400)
Roosevelt Roads Ns

Weather History for TJNR - January, 2013

Change the Weather History Date:

Tuesday, January 8, 2013

  Actual Average Record
Temperature  
Mean Temperature 78 °F -  
Max Temperature 82 °F 81 °F 84 °F (1998)
Min Temperature 75 °F 69 °F 46 °F (1998)
Cooling Degree Days 14    
Growing Degree Days 28 (Base 50)    
Moisture  
Dew Point 71 °F    
Average Humidity 77    
Maximum Humidity 94    
Minimum Humidity 67    
Precipitation  
Precipitation 0.07 in - - ()
Sea Level Pressure  
Sea Level Pressure 30.11 in    
Wind  
Wind Speed 11 mph (ENE)    
Max Wind Speed 16 mph    
Max Gust Speed 29 mph    
Visibility 10 miles    
Events Rain    
Averages and records for this station are not official NWS values.
T = Trace of Precipitation, MM = Missing Value Source: NWS Daily Summary

Daily Weather History Graph

Daily Weather History Graph

Search for Another Location

Airport or City:

Trip Planner

Search our weather history database for the weather conditions in past years. The results will help you decide how hot, cold, wet, or windy it might be!

Date:

Astronomy

Jan. 08, 2013 Rise Set
Actual Time 6:56 AM AST 6:02 PM AST
Civil Twilight 6:32 AM AST 6:26 PM AST
Nautical Twilight 6:05 AM AST 6:53 PM AST
Astronomical Twilight 5:39 AM AST 7:19 PM AST
Moon 3:28 AM AST (1/8) 2:59 PM AST (1/8)
Length of Visible Light 11h 53m
Length of Day
11h 06m
Waning Crescent, 14% of the Moon is Illuminated
Jan 8
Waning Crescent
Jan 11
New
Jan 18
First Quarter
Jan 27
Full
Feb 3
Last Quarter

Hourly Weather History & Observations

Time (AST) Temp. Heat Index Dew Point Humidity Pressure Visibility Wind Dir Wind Speed Gust Speed Precip Events Conditions
12:53 AM 78.1 °F - 69.1 °F 74% 30.10 in 10.0 mi ENE 8.1 mph - N/A   Mostly Cloudy
1:53 AM 78.1 °F - 69.1 °F 74% 30.08 in 10.0 mi East 10.4 mph - N/A   Partly Cloudy
2:53 AM 78.1 °F - 70.0 °F 76% 30.07 in 10.0 mi East 6.9 mph - N/A   Clear
3:53 AM 78.1 °F - 70.0 °F 76% 30.06 in 10.0 mi ENE 6.9 mph - N/A   Mostly Cloudy
4:53 AM 78.1 °F - 71.1 °F 79% 30.06 in 10.0 mi East 12.7 mph 20.7 mph N/A   Partly Cloudy
5:11 AM 78.8 °F - 71.6 °F 78% 30.06 in 10.0 mi East 10.4 mph - N/A   Mostly Cloudy
5:31 AM 78.8 °F - 71.6 °F 78% 30.06 in 10.0 mi East 11.5 mph 17.3 mph N/A   Mostly Cloudy
5:53 AM 78.1 °F - 70.0 °F 76% 30.07 in 10.0 mi East 9.2 mph - N/A   Partly Cloudy
6:25 AM 78.8 °F - 71.6 °F 78% 30.08 in 10.0 mi East 15.0 mph 21.9 mph N/A   Mostly Cloudy
6:38 AM 78.8 °F - 69.8 °F 74% 30.09 in 10.0 mi ENE 12.7 mph 20.7 mph N/A   Scattered Clouds
6:53 AM 78.1 °F - 71.1 °F 79% 30.10 in 10.0 mi ENE 11.5 mph 18.4 mph N/A   Mostly Cloudy
7:53 AM 79.0 °F - 71.1 °F 77% 30.12 in 10.0 mi North - - N/A   Scattered Clouds
8:38 AM 75.2 °F - 73.4 °F 94% 30.15 in 2.5 mi East 16.1 mph 24.2 mph 0.05 in Rain Rain
8:53 AM 75.0 °F - 72.0 °F 90% 30.16 in 5.0 mi ENE 16.1 mph 27.6 mph 0.07 in Rain Light Rain
9:53 AM 80.1 °F - - N/A% 30.16 in 10.0 mi ENE 13.8 mph 19.6 mph 0.00 in   Overcast
10:53 AM 81.0 °F 87.3 °F 75.9 °F 85% 30.16 in 9.0 mi ENE 13.8 mph 24.2 mph N/A   Overcast
11:53 AM 82.9 °F 87.5 °F 71.1 °F 67% 30.14 in 10.0 mi East 12.7 mph 21.9 mph N/A   Scattered Clouds
12:53 PM 80.1 °F 83.8 °F 72.0 °F 76% 30.13 in 10.0 mi East 11.5 mph - 0.00 in   Overcast
1:53 PM 82.0 °F 86.3 °F 71.1 °F 69% 30.10 in 10.0 mi East 13.8 mph 23.0 mph N/A   Scattered Clouds
2:53 PM 79.0 °F - 73.0 °F 82% 30.09 in 9.0 mi East 16.1 mph 28.8 mph N/A   Overcast
3:53 PM 80.1 °F 83.6 °F 71.1 °F 74% 30.09 in 10.0 mi East 9.2 mph 18.4 mph N/A   Mostly Cloudy
4:53 PM 81.0 °F 84.9 °F 71.1 °F 72% 30.10 in 10.0 mi East 15.0 mph 23.0 mph N/A   Mostly Cloudy
5:53 PM 79.0 °F - 70.0 °F 74% 30.11 in 10.0 mi ENE 10.4 mph - N/A   Overcast
6:53 PM 79.0 °F - 70.0 °F 74% 30.12 in 10.0 mi ENE 13.8 mph 21.9 mph N/A   Overcast
7:53 PM 79.0 °F - 71.1 °F 77% 30.13 in 10.0 mi East 13.8 mph 20.7 mph N/A   Overcast
8:53 PM 78.1 °F - 72.0 °F 81% 30.14 in 10.0 mi ENE 10.4 mph 20.7 mph N/A   Overcast
9:53 PM 79.0 °F - 69.1 °F 72% 30.15 in 10.0 mi East 10.4 mph 20.7 mph N/A   Partly Cloudy
10:53 PM 79.0 °F - 70.0 °F 74% 30.15 in 10.0 mi East 13.8 mph 21.9 mph N/A   Mostly Cloudy
11:53 PM 79.0 °F - 70.0 °F 74% 30.14 in 10.0 mi East 13.8 mph 24.2 mph N/A   Overcast